User: anonymous   Login
Location: Brno
(49.2000°N, 16.6330°E)
Time: 02:49:20
(UTC+02:00)
Language:

Meteor 1-4 Rocket - Orbit

View from above orbital plane
View from above orbital plane
View from above satellite
View from above satellite

Ground track
Ground track

The orbit data is extracted from the following two-line orbital elements,

1  4394U 70037B   17232.58588681 +.00001037 +00000-0 +35873-4 0  9992
2  4394 081.2429 299.2240 0039476 263.7686 095.9052 15.28181770575077
Epoch (UTC): 20 August 2017 14:03:40
Eccentricity: 0.0039476
inclination: 81.2429°
perigee height: 454 km
apogee height: 508 km
right ascension of ascending node: 299.2240°
argument of perigee: 263.7686°
revolutions per day: 15.28181770
mean anomaly at epoch: 95.9052°
orbit number at epoch: 57507

The dashed part of the orbit path shows where the satellite is in the earth's shadow,  

DLR